Tracking 30415 objects as of 15-May-2025
HD Live streaming from Space Station
objects crossing your sky now

SL-12 R/B(2)

Track SL-12 R/B(2) now!


NORAD ID: 24897
Int'l Code: 1997-041D
Perigee: 34,355.9 km
Apogee: 37,380.4 km
Inclination: 14.5 °
Period: 1,439.9 minutes
Semi major axis: 42239 km
RCS: 1 m2 (large)
Launch date: August 14, 1997
Source: Commonwealth of Independent States (former USSR) (CIS)
Launch site: TYURATAM MISSILE AND SPACE COMPLEX (TTMTR)

Note: This is a ROCKET BODY
Your satellite tracking list
Your tracking list is empty




NASA's NSSDC Master Catalog

Two Line Element Set (TLE):
1 24897U 97041D   25134.01192176 -.00000347  00000-0  00000-0 0  9998
2 24897  14.4797   1.1330 0358019 291.7791 254.6333  1.00006909101366
Source of the keplerian elements: AFSPC